Meteo Giornale » Osservazioni meteo Canada » Quesnel
ore: 18:17 - Osservazioni Meteo Quesnel
Lat. 53° 2' N Lon. 122° 31' W Alt. 545 metri s.l.m.
17 °C
Coperto
Temp. 24 Ore
11 °C
19 °C
Nord-Ovest
7.4 Km/h
Dew point 15 °C
Umidità 88 %
Visibilità 14 Km
Il sole sorge alle ore 06:19
Il sole tramonta alle ore 20:01
| Data e Ora | Cielo e Fenomeni | T °C | DP °C | Um. % | Pres. hPa | Vis. km | Vento km/h | |
|---|---|---|---|---|---|---|---|---|
| Oggi h: 18:17 | Coperto | 17 | 15 | 88 | 1009 | 14 | NO 7.4 | |
| Oggi h: 18:00 | Pioggia | 17 | 14 | 82 | 1009 | 14 | N 11.1 | |
| Oggi h: 17:50 | Pioggia | 18 | 14 | 77 | 1009 | 14 | NO 13 | |
| Oggi h: 17:00 | Molto Nuvoloso | 19 | 13 | 68 | 1009 | 14 | N 5.5 | |
| Oggi h: 16:00 | Molto Nuvoloso | 19 | 13 | 68 | 1010 | 14 | S 7.4 | |
| Oggi h: 15:15 | Molto Nuvoloso | 19 | 12 | 63 | 1010 | 14 | N 5.5 | |
| Oggi h: 15:03 | Pioggia | 19 | 13 | 68 | 1011 | 14 | S/SE 9.3 | |
| Oggi h: 15:00 | Molto Nuvoloso | 19 | 13 | 68 | 1011 | 14 | S 9.3 | |
| Oggi h: 14:00 | Sereno | 19 | 12 | 63 | 1011 | 14 | S 11.1 | |
| Oggi h: 13:00 | Poco Nuvoloso | 17 | 13 | 77 | 1011 | 14 | E/SE 7.4 | |
| Oggi h: 12:11 | Nuvoloso | 16 | 13 | 82 | 1012 | 14 | SE 7.4 | |
| Oggi h: 12:00 | Molto Nuvoloso | 16 | 13 | 82 | 1012 | 14 | S/SE 9.3 | |
| Oggi h: 11:20 | Coperto | 15 | 13 | 87 | 1013 | 14 | S/SE 11.1 | |
| Oggi h: 11:00 | Coperto | 14 | 13 | 93 | 1013 | 14 | SE 9.3 | |
| Oggi h: 10:41 | Coperto | 14 | 13 | 93 | 1013 | 14 | SE 9.3 | |
| Oggi h: 10:13 | Pioggia | 13 | 13 | 100 | 1013 | 14 | N 3.7 | |
| Oggi h: 10:00 | Pioggia | 13 | 12 | 93 | 1013 | 14 | N 0 | |
| Oggi h: 09:58 | Pioggia | 13 | 13 | 100 | 1013 | 14 | N 0 | |
| Oggi h: 09:30 | Pioggia | 13 | 12 | 93 | 1013 | 14 | N 3.7 | |
| Oggi h: 09:00 | Pioggia | 13 | 12 | 93 | 1014 | 14 | N 3.7 | |
| Oggi h: 08:43 | Pioggia | 13 | 12 | 93 | 1013 | 11 | N 0 | |
| Oggi h: 08:24 | Pioggia | 13 | 12 | 93 | 1013 | 14 | N 3.7 | |
| Oggi h: 08:00 | Pioggia | 13 | 12 | 93 | 1013 | 14 | N 3.7 | |
| Oggi h: 07:39 | Pioggia | 13 | 12 | 93 | 1013 | 14 | N 3.7 | |
| Oggi h: 07:10 | Molto Nuvoloso | 13 | 12 | 93 | 1013 | 14 | N 0 | |
| Oggi h: 07:00 | Coperto | 13 | 12 | 93 | 1013 | 14 | N 5.5 | |
| Oggi h: 06:00 | Coperto | 13 | 12 | 93 | 1013 | 14 | S 7.4 | |
| Oggi h: 05:45 | Coperto | 13 | 12 | 93 | 1013 | 14 | S/SE 9.3 | |
| Oggi h: 05:29 | Coperto | 13 | 12 | 93 | 1013 | 14 | SE 7.4 | |
| Oggi h: 05:00 | Coperto | 12 | 12 | 100 | 1013 | 14 | S/SE 7.4 | |
| Oggi h: 04:12 | Molto Nuvoloso | 11 | 11 | 100 | 1013 | 14 | N 3.7 | |
| Oggi h: 04:00 | Poco Nuvoloso | 11 | 10 | 93 | 1013 | 14 | N 0 | |
| Oggi h: 03:00 | Nuvoloso | 12 | 11 | 93 | 1013 | 14 | N 0 | |
| Oggi h: 02:00 | Coperto | 13 | 12 | 93 | 1014 | 14 | S 7.4 | |
| Oggi h: 01:00 | Molto Nuvoloso | 13 | 12 | 93 | 1014 | 14 | N 3.7 | |
| Oggi h: 00:00 | Coperto | 14 | 12 | 87 | 1014 | 14 | N 7.4 | |
| Ieri h: 23:00 | Coperto | 13 | 12 | 93 | 1014 | 14 | N 0 | |
| Ieri h: 22:00 | Molto Nuvoloso | 14 | 12 | 87 | 1014 | 14 | N 5.5 | |
| Ieri h: 21:00 | Molto Nuvoloso | 14 | 12 | 87 | 1014 | 14 | E 9.3 | |
| Ieri h: 20:00 | Nuvoloso | 15 | 12 | 82 | 1014 | 14 | E 9.3 | |
| Ieri h: 19:00 | Molto Nuvoloso | 17 | 13 | 77 | 1014 | 14 | SE 9.3 | |



